Mora, MN

9:44 PM CST on February 25, 2017 (GMT -0600)
Mora Municipal

Weather History for KJMR - January, 2013

Change the Weather History Date:

Wednesday, January 2, 2013

  Actual Average Record
Temperature  
Mean Temperature 18 °F -  
Max Temperature 19 °F 21 °F 42 °F (1998)
Min Temperature 17 °F -2 °F -42 °F (1979)
Degree Days  
Heating Degree Days 47    
Moisture  
Dew Point 15 °F    
Average Humidity 87    
Maximum Humidity 93    
Minimum Humidity 80    
Precipitation  
Precipitation 0.00 in - - ()
Sea Level Pressure  
Sea Level Pressure 29.97 in    
Wind  
Wind Speed 6 mph (South)    
Max Wind Speed 10 mph    
Max Gust Speed -    
Visibility 6 miles    
Events Snow    
Averages and records for this station are not official NWS values.
T = Trace of Precipitation, MM = Missing Value Source: NWS Daily Summary

Daily Weather History Graph

Daily Weather History Graph

Search for Another Location

Airport or City:

Trip Planner

Search our weather history database for the weather conditions in past years. The results will help you decide how hot, cold, wet, or windy it might be!

Date:

Astronomy

Jan. 02, 2013 Rise Set
Actual Time 7:54 AM CST 4:40 PM CST
Civil Twilight 7:20 AM CST 5:14 PM CST
Nautical Twilight 6:42 AM CST 5:52 PM CST
Astronomical Twilight 6:06 AM CST 6:28 PM CST
Moon 10:32 PM CST (1/2) 10:19 AM CST (1/2)
Length of Visible Light 9h 54m
Length of Day
8h 45m
Waning Gibbous, 75% of the Moon is Illuminated
Jan 2
Waning Gibbous
Jan 4
Last Quarter
Jan 11
New
Jan 18
First Quarter
Jan 26
Full

Hourly Weather History & Observations

Time (CST) Temp. Windchill Dew Point Humidity Pressure Visibility Wind Dir Wind Speed Gust Speed Precip Events Conditions
12:02 AM 17.6 °F 9.3 °F 14.0 °F 86% 29.99 in 10.0 mi South 5.8 mph - N/A   Overcast
12:22 AM 17.6 °F 9.3 °F 14.0 °F 86% 29.99 in 7.0 mi South 5.8 mph - N/A   Overcast
12:42 AM 17.6 °F 10.7 °F 14.0 °F 86% 29.99 in 7.0 mi South 4.6 mph - N/A   Overcast
1:02 AM 17.6 °F 10.7 °F 14.0 °F 86% 29.98 in 7.0 mi South 4.6 mph - N/A   Overcast
1:21 AM 17.6 °F 10.7 °F 14.0 °F 86% 29.97 in 7.0 mi South 4.6 mph - N/A   Overcast
1:42 AM 17.6 °F 10.7 °F 14.0 °F 86% 29.97 in 7.0 mi South 4.6 mph - N/A   Overcast
2:02 AM 17.6 °F 9.3 °F 14.0 °F 86% 29.96 in 10.0 mi South 5.8 mph - N/A   Overcast
2:21 AM 17.6 °F 10.7 °F 15.8 °F 93% 29.96 in 10.0 mi South 4.6 mph - N/A   Overcast
2:42 AM 19.4 °F 12.8 °F 15.8 °F 86% 29.96 in 10.0 mi SSW 4.6 mph - N/A   Overcast
3:01 AM 19.4 °F 11.5 °F 15.8 °F 86% 29.96 in 7.0 mi SW 5.8 mph - N/A   Overcast
3:41 AM 19.4 °F 9.5 °F 17.6 °F 93% 29.95 in 10.0 mi SSW 8.1 mph - N/A   Overcast
4:02 AM 19.4 °F 9.5 °F 17.6 °F 93% 29.94 in 7.0 mi SSW 8.1 mph - N/A   Overcast
4:22 AM 19.4 °F 8.6 °F 17.6 °F 93% 29.93 in 7.0 mi South 9.2 mph - N/A   Overcast
4:41 AM 19.4 °F 9.5 °F 17.6 °F 93% 29.93 in 7.0 mi SSW 8.1 mph - N/A   Overcast
5:02 AM 19.4 °F 9.5 °F 17.6 °F 93% 29.93 in 7.0 mi South 8.1 mph - N/A   Overcast
5:21 AM 19.4 °F 10.4 °F 17.6 °F 93% 29.93 in 7.0 mi SSW 6.9 mph - N/A   Overcast
5:42 AM 19.4 °F 11.5 °F 17.6 °F 93% 29.93 in 7.0 mi SSW 5.8 mph - N/A   Overcast
6:01 AM 19.4 °F 9.5 °F 17.6 °F 93% 29.92 in 10.0 mi SSW 8.1 mph - N/A   Overcast
6:22 AM 19.4 °F 10.4 °F 17.6 °F 93% 29.92 in 10.0 mi SSW 6.9 mph - N/A   Overcast
6:42 AM 19.4 °F 8.6 °F 15.8 °F 86% 29.92 in 7.0 mi SSW 9.2 mph - N/A   Overcast
7:02 AM 19.4 °F 10.4 °F 15.8 °F 86% 29.92 in 7.0 mi South 6.9 mph - N/A   Overcast
7:22 AM 19.4 °F 10.4 °F 15.8 °F 86% 29.92 in 7.0 mi South 6.9 mph - N/A   Overcast
7:41 AM 19.4 °F 10.4 °F 15.8 °F 86% 29.93 in 7.0 mi South 6.9 mph - N/A   Overcast
8:02 AM 19.4 °F 9.5 °F 17.6 °F 93% 29.93 in 7.0 mi South 8.1 mph - N/A   Overcast
8:22 AM 19.4 °F 11.5 °F 15.8 °F 86% 29.93 in 7.0 mi South 5.8 mph - N/A   Overcast
8:41 AM 19.4 °F 9.5 °F 15.8 °F 86% 29.93 in 5.0 mi South 8.1 mph - N/A   Overcast
9:02 AM 19.4 °F 9.5 °F 17.6 °F 93% 29.93 in 5.0 mi South 8.1 mph - N/A   Overcast
9:21 AM 19.4 °F 7.9 °F 15.8 °F 86% 29.94 in 5.0 mi SSW 10.4 mph - N/A   Overcast
9:42 AM 19.4 °F 7.9 °F 15.8 °F 86% 29.95 in 4.0 mi South 10.4 mph - N/A   Overcast
10:01 AM 19.4 °F 7.9 °F 15.8 °F 86% 29.95 in 4.0 mi South 10.4 mph - N/A   Overcast
10:22 AM 19.4 °F 7.9 °F 15.8 °F 86% 29.95 in 5.0 mi South 10.4 mph - N/A   Overcast
10:42 AM 19.4 °F 8.6 °F 15.8 °F 86% 29.95 in 5.0 mi SSW 9.2 mph - N/A   Overcast
11:01 AM 19.4 °F 10.4 °F 15.8 °F 86% 29.95 in 5.0 mi SSW 6.9 mph - N/A   Overcast
11:22 AM - - - N/A% - - North - - N/A   Unknown
11:42 AM 17.6 °F 6.4 °F 15.8 °F 93% 29.95 in 3.0 mi South 9.2 mph - N/A   Overcast
12:02 PM 17.6 °F 8.2 °F 14.0 °F 86% 29.93 in 2.5 mi SSW 6.9 mph - N/A   Overcast
12:21 PM 17.6 °F 8.2 °F 14.0 °F 86% 29.93 in 2.5 mi SSW 6.9 mph - N/A Snow Light Snow
12:42 PM 17.6 °F 7.3 °F 14.0 °F 86% 29.92 in 5.0 mi SSW 8.1 mph - N/A   Overcast
1:02 PM 17.6 °F 9.3 °F 14.0 °F 86% 29.92 in 5.0 mi SSW 5.8 mph - N/A   Overcast
1:22 PM 19.4 °F 10.4 °F 14.0 °F 80% 29.93 in 5.0 mi SSW 6.9 mph - N/A   Haze
1:42 PM 19.4 °F 10.4 °F 14.0 °F 80% 29.93 in 5.0 mi SSW 6.9 mph - N/A   Haze
2:02 PM 19.4 °F 11.5 °F 14.0 °F 80% 29.93 in 4.0 mi South 5.8 mph - N/A   Haze
2:22 PM 19.4 °F 10.4 °F 14.0 °F 80% 29.93 in 4.0 mi SSW 6.9 mph - N/A Snow Light Snow
2:41 PM 19.4 °F 10.4 °F 14.0 °F 80% 29.94 in 10.0 mi South 6.9 mph - N/A   Overcast
3:02 PM 17.6 °F 10.7 °F 14.0 °F 86% 29.95 in 10.0 mi South 4.6 mph - N/A   Overcast
3:21 PM 17.6 °F 9.3 °F 14.0 °F 86% 29.95 in 10.0 mi South 5.8 mph - N/A   Overcast
3:41 PM 17.6 °F 10.7 °F 14.0 °F 86% 29.96 in 7.0 mi SSW 4.6 mph - N/A   Overcast
4:02 PM 17.6 °F 10.7 °F 14.0 °F 86% 29.97 in 7.0 mi SSW 4.6 mph - N/A   Overcast
4:21 PM 17.6 °F 10.7 °F 14.0 °F 86% 29.97 in 7.0 mi SSW 4.6 mph - N/A   Overcast
4:42 PM 17.6 °F 10.7 °F 14.0 °F 86% 29.97 in 7.0 mi South 4.6 mph - N/A   Overcast
5:02 PM 17.6 °F 10.7 °F 14.0 °F 86% 29.97 in 10.0 mi South 4.6 mph - N/A   Overcast
5:22 PM 17.6 °F 10.7 °F 14.0 °F 86% 29.99 in 7.0 mi South 4.6 mph - N/A   Overcast
5:42 PM 17.6 °F 12.3 °F 14.0 °F 86% 30.00 in 7.0 mi SSW 3.5 mph - N/A   Overcast
6:01 PM 17.6 °F 12.3 °F 14.0 °F 86% 29.99 in 7.0 mi South 3.5 mph - N/A   Overcast
6:22 PM 17.6 °F 12.3 °F 14.0 °F 86% 29.99 in 5.0 mi South 3.5 mph - N/A   Overcast
6:41 PM 17.6 °F 12.3 °F 14.0 °F 86% 30.00 in 7.0 mi SSW 3.5 mph - N/A   Overcast
7:02 PM 17.6 °F 12.3 °F 14.0 °F 86% 30.00 in 7.0 mi South 3.5 mph - N/A   Overcast
7:22 PM 17.6 °F 12.3 °F 14.0 °F 86% 30.01 in 5.0 mi South 3.5 mph - N/A   Overcast
7:42 PM 17.6 °F 12.3 °F 14.0 °F 86% 30.01 in 5.0 mi South 3.5 mph - N/A   Overcast
8:02 PM 17.6 °F - 14.0 °F 86% 30.01 in 5.0 mi Calm Calm - N/A   Overcast
8:21 PM 17.6 °F - 14.0 °F 86% 30.01 in 4.0 mi Calm Calm - N/A   Overcast
8:42 PM 17.6 °F - 14.0 °F 86% 30.02 in 4.0 mi Calm Calm - N/A   Overcast
9:01 PM 17.6 °F 12.3 °F 14.0 °F 86% 30.02 in 4.0 mi South 3.5 mph - N/A   Overcast
9:21 PM 17.6 °F - 15.8 °F 93% 30.02 in 4.0 mi Calm Calm - N/A   Overcast
9:42 PM 17.6 °F - 15.8 °F 93% 30.02 in 4.0 mi Calm Calm - N/A   Overcast
10:02 PM 17.6 °F - 15.8 °F 93% 30.03 in 3.0 mi Calm Calm - N/A   Overcast
10:22 PM 19.4 °F - 15.8 °F 86% 30.04 in 4.0 mi Calm Calm - N/A   Overcast
10:42 PM 19.4 °F - 15.8 °F 86% 30.04 in 4.0 mi Calm Calm - N/A   Overcast
11:02 PM 19.4 °F - 15.8 °F 86% 30.05 in 4.0 mi Calm Calm - N/A Snow Light Snow
11:21 PM 19.4 °F - 15.8 °F 86% 30.05 in 4.0 mi Calm Calm - N/A   Overcast
11:42 PM 19.4 °F - 17.6 °F 93% 30.05 in 4.0 mi Calm Calm - N/A   Overcast